DW8321 Weather Reports


Display with metric or nautical units.
time (UTC)temp
F
wind
direction
speed
MPH
gust
MPH
rain 1hr
in
rain 24hr
in
rain mn
in
humidity
%
barometer
mb
20220529092003 51 0 0.0 0.0 0.00 0.01 0.00 80 1012.4
20220529091002 51 0 0.0 0.0 0.00 0.01 0.00 80 1012.5
20220529090003 51 0 0.0 0.0 0.00 0.01 0.00 80 1012.5
20220529085002 52 178 0.0 1.0 0.00 0.01 0.00 80 1012.4
20220529084003 52 0 0.0 0.0 0.00 0.01 0.00 80 1012.4
20220529083003 52 0 0.0 0.0 0.00 0.01 0.00 80 1012.5
20220529082003 52 149 0.0 1.0 0.00 0.01 0.00 80 1012.5
20220529081002 52 130 0.0 1.0 0.00 0.01 0.00 79 1012.4
20220529080003 52 207 0.0 2.0 0.00 0.02 0.00 79 1012.6
20220529075002 52 201 0.0 2.0 0.00 0.02 0.00 79 1012.7
20220529074003 52 0 0.0 0.0 0.00 0.02 0.00 79 1012.8
20220529073003 52 187 0.0 1.0 0.00 0.02 0.00 79 1012.7
20220529072002 52 198 0.0 2.0 0.00 0.02 0.00 79 1012.7
20220529071003 52 205 0.0 2.0 0.00 0.02 0.00 79 1012.8
20220529070004 52 0 0.0 0.0 0.00 0.02 0.00 79 1012.8
20220529065002 52 0 0.0 0.0 0.00 0.02 0.02 78 1012.7
20220529064003 52 0 0.0 0.0 0.00 0.02 0.02 77 1012.8
20220529063003 52 211 0.0 1.0 0.00 0.02 0.02 77 1012.9
20220529062003 53 211 0.0 1.0 0.00 0.02 0.02 77 1012.8
20220529061002 53 0 0.0 0.0 0.00 0.02 0.02 76 1012.7
20220529060003 53 204 0.0 1.0 0.00 0.02 0.02 76 1012.7
20220529055003 53 189 0.0 1.0 0.00 0.02 0.02 75 1012.8
20220529054002 53 186 0.0 2.0 0.00 0.02 0.02 75 1012.9
20220529053002 54 219 0.0 2.0 0.00 0.02 0.02 74 1012.9
20220529052002 54 234 0.0 2.0 0.00 0.02 0.02 74 1012.8
20220529051003 54 240 0.0 3.0 0.00 0.02 0.02 73 1012.7
20220529050003 54 241 0.0 1.0 0.00 0.02 0.02 72 1012.6
20220529045003 54 243 0.0 3.0 0.00 0.02 0.02 72 1012.5
20220529044003 54 258 1.0 2.0 0.00 0.02 0.02 72 1012.4
20220529043003 55 254 0.0 3.0 0.00 0.02 0.02 71 1012.4
20220529042003 55 251 1.0 2.0 0.00 0.02 0.02 71 1012.3
20220529041003 55 245 1.0 3.0 0.00 0.02 0.02 70 1012.2
20220529040003 55 244 1.0 3.0 0.00 0.02 0.02 69 1012.4
20220529035002 55 253 1.0 4.0 0.00 0.02 0.02 69 1012.4
20220529034003 55 242 1.0 6.0 0.00 0.02 0.02 70 1012.4
20220529033003 55 243 1.0 7.0 0.00 0.02 0.02 70 1012.4
20220529032003 56 246 1.0 5.0 0.00 0.02 0.02 72 1012.2
20220529031003 56 250 1.0 3.0 0.00 0.02 0.02 74 1012.2
20220529030004 56 249 1.0 4.0 0.00 0.02 0.02 75 1012.2
20220529025003 56 245 1.0 4.0 0.01 0.02 0.02 75 1012.1
20220529024002 56 247 0.0 3.0 0.01 0.02 0.02 75 1011.9
20220529023004 56 260 1.0 4.0 0.01 0.02 0.02 75 1011.8
20220529022003 56 234 1.0 4.0 0.01 0.02 0.02 75 1011.7
20220529021003 57 188 0.0 1.0 0.01 0.02 0.02 75 1011.7
20220529020003 58 215 1.0 4.0 0.01 0.02 0.02 72 1012.0
20220529015003 59 252 2.0 5.0 0.00 0.01 0.01 69 1012.0
20220529014003 59 258 0.0 3.0 0.00 0.01 0.01 65 1011.7
20220529013003 59 223 0.0 1.0 0.00 0.01 0.01 66 1011.8
20220529012003 59 246 0.0 3.0 0.00 0.01 0.01 66 1011.9
20220529011002 60 244 0.0 2.0 0.00 0.01 0.01 66 1011.8
20220529010004 60 256 1.0 3.0 0.00 0.01 0.01 64 1011.9
20220529005003 60 262 0.0 2.0 0.00 0.01 0.01 64 1012.0
20220529004003 60 237 1.0 3.0 0.00 0.01 0.01 62 1012.0
20220529003004 60 252 1.0 3.0 0.00 0.01 0.01 61 1012.1
20220529002003 61 245 1.0 6.0 0.00 0.01 0.01 61 1012.0
20220529001003 61 211 1.0 7.0 0.00 0.01 0.01 59 1012.1
20220529000003 61 235 2.0 6.0 0.00 0.01 0.01 58 1012.1
20220528235003 60 258 0.0 4.0 0.00 0.01 0.01 59 1012.1
20220528234003 60 245 1.0 3.0 0.00 0.01 0.01 59 1012.3
20220528233004 60 222 1.0 5.0 0.00 0.01 0.01 59 1012.4
20220528232003 60 199 0.0 2.0 0.00 0.01 0.01 58 1012.5
20220528231003 60 225 1.0 3.0 0.00 0.01 0.01 57 1012.6
20220528230004 60 240 2.0 4.0 0.00 0.01 0.01 56 1012.8
20220528225004 60 251 2.0 7.0 0.00 0.01 0.01 55 1012.9
20220528224003 61 212 0.0 4.0 0.00 0.01 0.01 57 1012.9
20220528223003 60 243 1.0 3.0 0.00 0.01 0.01 55 1012.8
20220528222003 60 252 1.0 4.0 0.00 0.01 0.01 56 1012.9
20220528221002 61 255 3.0 7.0 0.00 0.01 0.01 56 1013.1
20220528220004 62 255 2.0 7.0 0.00 0.01 0.01 57 1013.1
20220528215003 61 262 2.0 8.0 0.00 0.01 0.01 56 1013.1
20220528214002 61 269 3.0 8.0 0.00 0.01 0.01 55 1013.2
20220528213004 61 256 2.0 5.0 0.00 0.01 0.01 57 1013.4
20220528212003 62 228 2.0 5.0 0.00 0.01 0.01 55 1013.2
20220528211003 63 232 2.0 7.0 0.00 0.01 0.01 54 1013.2
20220528210003 62 223 2.0 4.0 0.00 0.01 0.01 53 1013.2
20220528205003 62 241 2.0 6.0 0.00 0.01 0.01 57 1013.3
20220528204003 62 218 1.0 5.0 0.00 0.01 0.01 56 1013.3
20220528203004 63 239 2.0 5.0 0.00 0.01 0.01 56 1013.3
20220528202004 62 254 2.0 9.0 0.00 0.01 0.01 58 1013.2
20220528201003 61 249 2.0 7.0 0.00 0.01 0.01 60 1013.3
20220528200004 60 218 1.0 4.0 0.00 0.01 0.01 59 1013.5
20220528195004 60 248 1.0 4.0 0.00 0.01 0.01 56 1013.5
20220528194003 60 201 0.0 2.0 0.00 0.01 0.01 56 1013.4
20220528193003 60 178 0.0 2.0 0.00 0.01 0.01 54 1013.4
20220528192003 60 209 1.0 3.0 0.00 0.01 0.01 55 1013.4
20220528191003 61 243 1.0 4.0 0.00 0.01 0.01 51 1013.3
20220528190004 62 221 1.0 3.0 0.00 0.01 0.01 48 1013.4
20220528185003 61 262 2.0 8.0 0.00 0.01 0.01 52 1013.5
20220528184004 62 218 1.0 5.0 0.00 0.01 0.01 52 1013.4
20220528183004 61 243 1.0 3.0 0.00 0.01 0.01 52 1013.3
20220528182003 61 224 1.0 5.0 0.00 0.01 0.01 52 1013.2
20220528181003 61 253 1.0 5.0 0.00 0.01 0.01 50 1013.3
20220528180004 60 250 1.0 3.0 0.00 0.01 0.01 51 1013.4
20220528175003 59 239 1.0 6.0 0.00 0.01 0.01 51 1013.4
20220528174003 59 195 1.0 4.0 0.00 0.01 0.01 58 1013.4
20220528173004 58 169 1.0 4.0 0.00 0.01 0.01 58 1013.5
20220528172003 58 263 1.0 3.0 0.00 0.01 0.01 56 1013.3
20220528171004 58 214 1.0 3.0 0.00 0.01 0.01 58 1013.3
20220528170004 57 133 1.0 7.0 0.00 0.01 0.01 60 1013.3
20220528165003 56 161 1.0 3.0 0.00 0.01 0.01 59 1013.3
20220528164003 56 136 1.0 6.0 0.00 0.01 0.01 66 1013.2
20220528163004 55 146 0.0 3.0 0.00 0.01 0.01 68 1013.1
20220528162003 55 229 1.0 6.0 0.00 0.01 0.01 67 1013.1
20220528161003 55 252 2.0 6.0 0.00 0.01 0.01 68 1013.1
20220528160004 54 232 1.0 3.0 0.00 0.01 0.01 70 1013.1
20220528155003 54 159 0.0 3.0 0.00 0.01 0.01 73 1012.8
20220528154004 54 213 1.0 3.0 0.00 0.01 0.01 76 1012.7
20220528153003 54 256 1.0 2.0 0.00 0.01 0.01 75 1012.7
20220528152001 53 251 1.0 4.0 0.00 0.01 0.01 75 1012.7
20220528151002 53 255 0.0 2.0 0.00 0.01 0.01 76 1012.7
20220528150003 53 263 0.0 2.0 0.00 0.01 0.01 76 1012.8
20220528145002 53 246 0.0 2.0 0.00 0.01 0.01 75 1012.7
20220528144002 53 226 0.0 3.0 0.00 0.01 0.01 75 1012.7
20220528143002 53 176 0.0 3.0 0.00 0.01 0.01 77 1012.7
20220528142002 53 167 0.0 1.0 0.00 0.01 0.01 78 1012.7
20220528141002 53 131 0.0 1.0 0.00 0.01 0.01 78 1012.7
20220528140003 52 125 0.0 1.0 0.00 0.01 0.01 79 1012.7
20220528135003 52 207 0.0 2.0 0.00 0.01 0.01 79 1012.7
20220528134002 52 174 0.0 2.0 0.00 0.01 0.01 78 1012.4
20220528133003 53 113 0.0 1.0 0.00 0.01 0.01 79 1012.4
20220528132002 54 0 0.0 0.0 0.00 0.01 0.01 77 1012.3
20220528131002 54 0 0.0 0.0 0.00 0.01 0.01 77 1012.3
20220528130003 54 0 0.0 0.0 0.00 0.01 0.01 77 1012.4
20220528125002 54 0 0.0 0.0 0.00 0.01 0.01 77 1012.5
20220528124002 54 0 0.0 0.0 0.00 0.01 0.01 78 1012.4
20220528123002 54 113 0.0 1.0 0.00 0.01 0.01 78 1012.4
20220528122002 54 113 0.0 2.0 0.00 0.01 0.01 78 1012.6
20220528121003 54 112 0.0 1.0 0.00 0.01 0.01 78 1012.7
20220528120003 54 0 0.0 0.0 0.00 0.01 0.01 78 1012.6
20220528115002 54 0 0.0 0.0 0.00 0.01 0.01 78 1012.7
20220528114002 54 113 0.0 1.0 0.00 0.01 0.01 78 1012.7
20220528113003 54 113 0.0 2.0 0.00 0.01 0.01 77 1012.8
20220528112003 54 112 0.0 1.0 0.00 0.01 0.01 78 1012.8
20220528111002 54 112 0.0 1.0 0.00 0.01 0.01 78 1012.9
20220528110003 54 113 0.0 1.0 0.00 0.01 0.01 78 1012.8
20220528105002 54 112 0.0 1.0 0.00 0.01 0.01 78 1012.7
20220528104003 54 131 0.0 3.0 0.00 0.01 0.01 78 1012.9
20220528103003 54 135 0.0 2.0 0.00 0.01 0.01 79 1013.0
20220528102002 54 135 0.0 2.0 0.00 0.01 0.01 79 1013.0
20220528101002 54 135 0.0 2.0 0.00 0.01 0.01 79 1013.1
20220528100003 54 135 0.0 1.0 0.00 0.01 0.01 79 1012.9
20220528095003 54 0 0.0 0.0 0.00 0.01 0.01 79 1013.1
20220528094002 54 0 0.0 0.0 0.00 0.01 0.01 79 1013.4
20220528093003 54 0 0.0 0.0 0.00 0.01 0.01 79 1013.4